Theta_e
309 307 306 306 306 305 301 295 292 305 302 291 291 288 292 296 296 298 295 294 292 289 289 287 287 288 291 297 295 289 290 285 280 284 291 293 289 287 286 277 277 283 282 280
308 306 306 306 306 305 299 293 295 304 302 285 285 291 293 296 295 295 293 291 293 292 288 285 290 291 296 296 294 290 290 283 279 281 284 289 288 288 288 288 286 281 279 280
306 305 305 305 305 304 297 294 289 293 295 292 287 287 289 292 299 296 295 293 293 290 287 290 289 290 295 296 295 301 296 285 283 278 282 285 284 287 289 287 281 282 282 284
305 305 305 305 304 304 298 293 289 290 284 287 288 288 290 290 290 294 293 291 291 288 283 286 287 289 292 294 297 294 290 285 286 288 289 290 289 288 289 287 287 283 285 286
304 304 305 305 304 304 295 288 288 289 287 289 288 289 287 288 291 290 289 288 291 289 284 286 285 289 288 288 292 289 289 283 287 285 290 289 286 288 291 290 291 289 288 287
303 303 303 304 304 301 292 294 294 290 287 287 285 284 288 289 291 292 293 290 288 287 289 293 293 293 293 292 289 288 286 284 282 281 287 287 282 288 289 290 292 290 285 289
303 303 303 302 303 301 292 294 293 287 282 287 287 290 289 289 290 288 292 291 287 293 297 296 294 293 294 293 292 292 286 286 286 283 282 274 287 293 293 290 291 292 292 293
303 302 302 302 302 302 292 293 290 290 282 287 288 289 288 289 290 289 290 292 292 293 291 287 284 288 288 293 295 292 292 287 285 281 280 284 288 291 289 288 287 294 292 293
302 302 302 302 302 302 292 293 293 291 289 285 292 288 288 284 283 286 290 294 294 291 289 286 280 280 286 286 290 297 294 292 286 284 278 270 283 292 295 295 283 293 293 292
302 302 302 302 301 302 296 292 293 290 285 290 289 285 285 287 284 282 288 289 288 291 287 285 282 283 290 285 285 285 287 286 283 282 280 284 291 294 297 282 283 292 293 293
302 302 302 302 302 301 298 292 294 290 289 290 292 292 288 288 286 283 287 288 287 285 286 287 287 284 287 285 288 286 283 279 282 284 281 277 295 294 288 291 293 292 294 297
301 301 301 302 302 301 301 292 295 296 290 289 294 294 295 293 292 289 289 290 290 291 287 288 286 282 284 285 279 290 281 285 285 286 281 291 295 294 296 294 293 295 296 295
301 301 301 302 302 302 300 294 294 291 291 289 288 288 294 296 296 296 287 287 292 291 294 287 289 285 285 280 282 286 289 291 286 289 292 294 296 297 297 297 295 296 295 293
301 301 301 301 302 302 302 294 294 292 291 284 286 296 293 297 297 295 297 296 296 297 296 291 289 287 289 286 289 286 289 290 290 289 294 294 296 297 297 297 297 296 296 294
301 301 301 301 302 303 300 296 295 296 291 285 286 292 294 295 294 294 297 296 296 295 292 291 288 292 289 287 287 285 291 289 288 289 294 293 293 297 298 296 297 297 295 295
301 301 301 301 301 302 293 287 299 299 298 289 284 289 291 295 296 295 297 297 296 296 294 292 292 292 291 286 283 291 293 297 299 295 299 298 299 299 299 298 296 296 296 295
300 300 300 301 300 296 290 287 295 301 296 290 284 285 291 295 298 298 296 297 296 296 295 292 292 292 292 289 285 291 293 296 298 302 301 297 297 294 297 296 297 296 295 296
300 300 300 301 301 299 294 296 300 300 294 293 284 282 286 295 293 294 302 296 297 296 294 294 291 293 292 287 291 293 298 301 301 301 297 295 296 295 295 297 295 293 293 295
300 301 302 298 294 293 295 307 304 302 296 288 288 284 280 292 290 292 298 297 290 296 291 291 292 290 286 290 292 299 300 298 298 297 296 295 294 294 294 295 293 291 293 293
301 298 295 293 299 307 304 299 294 293 293 292 287 290 286 289 288 286 287 294 291 287 290 295 289 289 294 297 297 301 301 301 296 291 292 292 292 293 294 293 293 293 293 293
292 287 287 290 298 293 289 287 289 289 286 289 288 289 288 293 288 288 288 285 291 288 290 291 290 289 294 301 303 302 303 298 295 295 295 294 294 294 294 293 294 293 293 292
292 291 293 291 291 288 285 284 291 288 287 291 288 289 291 291 298 293 290 288 293 286 294 291 287 291 299 300 302 303 301 296 295 296 295 295 296 296 295 294 293 293 293 293
295 290 288 287 287 278 283 282 284 284 289 291 290 287 288 292 294 289 290 286 286 294 289 288 290 293 296 297 301 302 301 298 297 296 296 296 295 296 295 293 294 294 292 292
289 288 277 283 283 285 286 284 284 287 288 285 286 286 286 291 290 290 286 289 290 287 284 285 290 290 293 297 302 301 299 296 297 298 297 296 295 295 295 294 293 293 291 292
288 287 276 283 287 286 286 286 284 286 287 285 284 285 287 287 286 288 288 286 281 284 283 286 289 291 297 302 303 302 300 296 296 297 297 296 296 294 293 294 293 293 292 291
288 287 283 285 284 283 283 284 284 287 287 288 288 287 286 285 286 284 282 281 280 283 286 288 290 293 297 301 301 303 304 300 296 297 298 298 297 294 293 293 293 292 292 290
288 284 287 284 284 283 284 286 287 289 286 283 286 285 285 288 283 280 284 281 284 286 288 290 293 292 295 300 303 304 305 304 299 299 298 297 297 296 294 291 292 292 291 291
Wind_Speed
21 23 25 26 27 27 9 3 3 4 5 5 1 1 3 6 7 1 2 1 3 1 4 4 4 6 4 4 3 2 2 1 4 8 18 12 10 6 5 4 6 3 5 10
21 23 25 26 25 20 4 4 3 4 7 3 4 6 5 3 7 4 5 5 5 5 4 3 4 6 5 5 5 6 4 2 4 9 5 6 1 4 4 3 3 6 8 9
20 22 24 26 28 23 1 2 5 6 5 1 2 5 5 5 7 4 4 4 6 5 3 3 5 8 5 4 6 11 8 5 8 9 10 5 12 18 18 12 6 12 13 23
20 20 22 24 27 29 2 4 2 1 5 4 6 2 4 10 5 6 4 5 2 3 4 5 6 4 6 7 9 5 7 7 6 12 17 16 22 21 19 19 17 10 14 8
19 19 20 23 25 28 5 3 3 5 4 5 5 3 2 5 9 5 7 3 7 4 4 8 14 11 4 7 7 7 3 6 4 15 15 15 16 19 12 7 8 12 11 11
16 17 18 19 20 14 4 3 4 4 5 5 3 3 4 9 9 8 7 6 6 6 7 13 12 12 10 12 12 10 7 5 1 18 5 11 11 3 1 3 9 7 7 2
15 16 16 16 15 10 1 3 2 2 5 3 4 9 14 10 11 9 6 5 2 4 12 12 9 12 17 16 18 12 6 5 4 8 4 4 4 3 3 4 11 8 8 9
13 14 15 14 14 13 2 2 2 2 4 5 14 4 4 9 9 4 9 6 5 5 6 4 7 5 4 4 6 7 11 6 3 3 4 7 7 5 4 1 9 8 7 8
12 12 13 14 14 13 2 4 2 1 3 6 6 7 5 4 3 5 4 12 5 5 2 1 3 3 3 4 8 9 6 6 2 1 2 5 6 5 5 4 8 9 6 9
11 12 12 12 12 12 5 4 2 2 3 6 4 5 3 3 2 5 8 7 7 3 2 2 3 4 3 3 3 2 1 2 6 5 5 7 4 6 4 3 7 4 5 9
11 11 12 13 12 11 5 5 2 3 4 12 16 18 12 7 4 4 5 7 4 5 4 2 2 2 3 3 3 4 4 4 3 3 4 8 7 5 6 6 4 5 6 10
11 12 13 13 12 12 10 4 3 1 5 8 15 17 18 18 21 10 3 5 4 3 2 3 4 4 4 2 4 4 3 4 3 6 8 4 5 8 10 6 5 5 6 9
11 12 13 14 14 12 9 3 3 2 5 9 4 6 7 7 14 10 5 4 7 4 4 2 3 5 1 2 4 3 4 4 4 5 5 8 14 12 5 6 7 7 8 8
11 12 14 15 15 13 12 3 3 2 4 5 9 7 14 9 13 10 17 13 1 4 2 3 3 3 4 3 5 10 9 3 6 7 10 13 9 6 6 9 7 9 10 10
12 14 14 15 15 15 7 6 6 6 3 4 8 19 9 4 6 8 9 13 8 3 3 3 3 3 4 3 3 5 4 7 4 5 8 9 14 15 8 7 10 13 15 14
14 14 14 13 14 13 3 4 3 5 4 4 6 6 10 14 5 7 8 11 4 3 3 3 3 4 1 3 5 7 8 4 4 10 14 13 15 7 4 7 13 17 12 13
15 16 14 13 12 2 3 4 2 5 5 2 6 7 7 8 6 5 3 4 2 3 2 3 3 3 3 4 7 14 10 12 14 12 9 9 1 4 6 10 10 13 13 12
18 18 16 14 11 9 6 6 15 7 2 1 3 6 6 5 2 2 3 2 2 2 2 2 2 2 3 7 11 9 10 13 11 5 4 2 3 5 8 7 8 12 12 11
21 20 17 1 3 3 3 4 10 2 2 1 2 4 5 4 3 3 1 2 3 2 3 3 3 3 7 9 6 6 10 5 5 4 3 3 4 8 11 6 9 11 11 11
21 1 2 2 3 1 4 1 2 1 1 1 3 2 5 3 3 4 3 1 3 2 4 3 4 5 10 12 10 9 9 5 4 3 6 6 9 10 11 9 10 10 10 10
4 3 2 4 10 2 1 2 2 3 2 3 4 5 5 2 4 4 3 3 3 3 3 3 3 3 8 12 7 4 3 3 4 2 2 4 4 8 10 12 14 13 13 11
3 4 4 3 2 2 2 2 2 3 3 4 5 5 4 3 5 2 4 3 2 5 6 4 1 3 13 18 8 5 4 3 5 2 5 6 9 9 8 8 9 9 9 10
0 1 1 2 2 3 3 1 1 2 3 3 3 5 3 3 2 3 3 4 5 2 2 2 4 11 17 19 16 8 4 6 5 6 4 2 5 7 10 10 10 10 10 10
2 3 3 4 3 4 2 4 3 5 3 4 2 3 3 2 2 1 4 5 4 2 7 5 7 18 20 22 13 2 2 5 4 4 3 2 5 6 9 10 10 10 12 12
3 2 3 4 3 2 3 2 2 3 3 3 4 3 3 0 1 2 3 4 6 3 4 5 12 20 18 10 11 10 6 4 1 2 2 2 4 6 8 9 9 10 10 12
2 3 2 3 2 4 3 2 3 3 3 3 3 5 4 3 2 4 7 5 5 5 6 10 14 20 18 14 10 12 10 6 3 1 3 3 3 5 5 7 9 9 10 10
3 4 3 3 3 4 2 1 2 3 3 2 2 4 5 2 4 4 4 4 5 8 10 10 13 17 17 15 11 12 13 10 4 3 2 3 5 3 5 6 8 8 9 9
Wind_Direction
345 346 346 345 346 346 22 354 47 294 54 45 67 237 277 310 319 307 56 66 45 320 292 265 270 253 238 102 142 119 213 214 284 263 276 258 243 207 154 129 284 262 264 269
350 347 346 345 348 1 324 345 276 331 82 53 334 309 303 256 320 300 219 218 221 250 240 289 269 299 283 215 166 187 177 257 311 317 353 11 180 197 220 232 192 219 261 268
350 349 347 346 345 349 33 14 2 330 30 69 42 353 286 313 318 296 39 4 5 9 304 210 232 282 270 291 234 190 166 192 196 238 260 249 277 274 273 259 236 274 251 281
351 352 350 350 346 342 89 28 338 220 309 323 329 230 271 307 325 9 27 329 345 309 310 314 252 306 306 321 278 177 145 220 230 245 263 276 276 281 281 263 261 237 291 267
353 353 354 352 353 343 69 60 21 345 288 297 314 320 296 315 333 331 300 271 287 275 232 221 275 276 248 229 280 204 199 254 237 271 276 264 286 295 287 293 321 295 303 285
354 353 358 358 2 7 34 318 330 96 284 314 319 224 355 307 318 291 340 338 318 299 302 308 273 257 240 235 237 237 215 226 238 271 341 321 295 202 54 274 237 250 270 264
352 351 353 358 4 25 161 285 340 34 279 286 255 314 305 307 311 279 300 320 328 287 312 296 271 250 257 250 248 212 204 169 177 283 39 256 220 226 235 291 282 273 273 283
348 348 347 352 352 357 107 279 8 296 271 274 293 265 305 299 303 289 296 285 240 294 289 307 321 300 335 258 233 177 200 174 233 247 189 283 205 191 199 247 283 232 272 289
338 342 341 344 344 345 5 269 207 277 288 246 247 318 283 281 303 298 272 304 296 303 219 215 256 271 287 352 335 64 92 109 175 198 262 246 238 180 208 262 263 186 243 263
328 333 334 335 338 336 342 277 13 318 274 266 241 222 240 282 308 263 292 315 328 9 329 254 239 255 10 269 272 279 206 195 234 220 249 276 197 171 194 233 265 165 233 268
318 323 325 323 327 330 325 275 248 176 262 284 260 270 263 271 195 220 309 341 345 351 342 286 317 291 313 313 299 265 217 181 238 223 222 262 176 151 190 220 224 217 256 277
311 315 318 317 318 321 321 279 293 243 235 258 303 268 250 242 243 248 221 242 307 275 336 3 341 327 319 314 286 310 307 168 248 207 227 238 199 257 248 190 221 240 240 269
305 309 312 312 312 315 301 249 261 316 271 291 299 262 263 243 234 204 191 252 200 227 196 204 235 253 170 263 260 309 298 303 239 321 303 311 301 290 220 197 209 237 249 250
302 306 310 310 311 309 305 245 198 195 276 279 281 309 300 273 285 220 210 216 149 131 141 185 249 273 208 250 270 281 259 290 244 255 291 329 296 274 259 256 255 267 268 283
299 304 307 310 310 311 311 272 242 190 209 286 298 302 270 275 280 251 202 202 194 176 200 212 245 241 252 275 275 257 209 214 197 243 245 240 258 283 258 263 281 293 293 293
297 304 308 309 309 324 4 329 42 149 193 270 309 301 305 313 299 265 187 187 160 174 177 222 247 262 155 266 258 242 245 250 240 306 277 252 265 298 310 292 288 302 312 302
299 302 304 302 296 289 232 209 257 270 11 263 301 296 280 297 4 346 64 133 166 144 196 216 231 241 135 247 257 272 287 281 274 264 268 275 311 294 298 291 317 317 303 298
301 300 297 290 281 279 263 250 251 228 193 204 291 277 313 346 350 340 337 105 88 216 231 223 214 241 202 253 248 277 277 294 298 295 11 76 264 309 303 308 330 318 309 312
302 303 302 49 127 209 242 103 95 82 141 288 259 298 294 329 300 263 260 155 204 193 231 216 195 225 236 240 272 322 319 285 299 334 146 321 323 328 329 342 332 314 321 329
305 352 162 149 197 352 107 92 144 84 81 170 250 260 262 338 287 285 6 200 240 241 224 161 219 258 266 285 292 275 270 301 274 315 333 325 343 352 342 346 335 327 329 335
23 12 353 274 298 77 189 226 190 132 207 219 246 240 258 261 261 255 217 237 206 267 192 226 229 314 317 323 312 354 265 212 91 138 297 349 332 343 354 346 341 345 349 350
258 273 283 289 302 208 263 240 104 209 218 200 234 242 218 267 259 264 300 265 312 255 145 239 23 270 337 339 295 295 89 134 114 106 54 12 11 357 356 346 340 343 346 356
128 166 267 109 272 41 225 285 296 271 215 246 246 289 205 289 327 302 311 283 246 339 344 3 24 324 337 333 320 297 89 118 121 110 120 38 11 5 10 357 356 350 355 1
208 202 305 182 200 246 207 194 222 243 200 278 261 252 209 203 289 303 286 293 301 345 13 15 329 329 322 310 304 348 75 119 118 143 153 80 31 18 15 19 6 357 0 2
249 235 232 224 257 239 224 212 23 302 260 311 314 288 133 131 338 313 320 315 38 23 355 302 317 311 308 357 354 360 8 108 176 154 143 66 45 36 20 17 21 11 7 8
250 243 287 278 44 323 345 1 317 279 307 341 30 8 360 34 32 25 14 3 28 328 309 310 313 327 337 344 345 353 353 317 196 275 132 138 77 52 41 19 29 19 15 16
236 248 234 214 249 226 249 140 293 302 61 21 49 330 4 44 44 32 31 335 307 306 312 315 334 329 334 335 344 355 351 328 7 78 116 113 117 97 48 36 26 29 25 21